Location: Berlise
(49.6641°N, 4.1077°E)
Time: 03:04:47
(UTC+00:00)

Cosmos 2369 Rocket - Pass Details

Date: 27 January 2021
Orbit: 830 x 851 km, 71.0° (Epoch: 24 February)

Event Time Altitude Azimuth Distance (km) Brightness Sun altitude
Exits shadow 06:42:06 - 324° (NW) 3,118 4.6 -6.8°
Reaches altitude 10° 06:43:58 10° 318° (NW) 2,450 4.1 -6.5°
Maximum altitude 06:49:02 36° 253° (WSW) 1,288 2.8 -5.8°
Drops below altitude 10° 06:54:05 10° 188° (S) 2,431 4.8 -5.0°
Sets 06:56:40 0° 180° (S) 3,360 5.7 -4.6°
